14:44
Airports
History
Links
Donate
Help keep this website running!
PayPal
Bitcoin
This page is community maintained. The information is intended for PC simulator navigation or reference.
Always use approved charts for navigation.
LFMK
Salvaza
Salvaza (LFMK)
Carcassonne, Languedoc-Roussillon, France (11000)
(C)
Lat/Lng:43° 12' 58.04" N / 2° 18' 19.79" E
43.216122 / 2.305496
Elevation:433'ft / 132mMSL
ID / ICAO:LFMK
Runways:1
Longest:(10-28) 2,092.1m / 6,864ft Asphalt
Controlled:Yes
Distance To
Airport ID:
Airport Radio Frequencies
LFMK ATIS: 120.02
CARCASSONNE MULT: 121
Tower: 121
Nearby VORs <50NM
Nearby NDBs
METARUpdated 08-19-17 14:30 GMT
Altimeter: 30.15
Visibility: 6.2 statute miles
Wind: 16 knots (290°)
Temp: 26°c 79°f
Humidity: 39.1%

METAR: LFMK 191430Z AUTO 29016KT CAVOK 26/11 Q1021 TEMPO 30015G25KT

(Powered by phpweather)
Runway 10 / 28
Dimensions:2092.1 x 45.1m 6864' x 148'ft
Surface:Asphalt
Edge Lights:Medium intensity
Runway 10 [A]Runway 28 [B]
Heading:096°TH 276°TH
Lat:
Lng:
43° 13' 1.7"N
2° 17' 33.57"E
43° 12' 54.37"N
2° 19' 6.01"E
TDZ:Yes, lighted
User Notes and Comments
Google Map
Nearby Airports
(U) Moussoulens 6.4 NM
LF12 NW 316°
4 Castelnaudary Villeneuve 20.3 NM
LFMW WNW 288°
(U) La Montagne Noire 20.7 NM
LFMG NW 309°
(C) Lezignan-Corbieres 21.7 NM
LFMZ E 97°
(U) Mazamet 23.5 NM
LFCK N 358°
4 Puivert 24.5 NM
LFNW SSW 210°
(U) Revel Montgey 24.6 NM
LFIR NW 318°
VFR Chart
Flight Planning at SkyVector.com